Tonkawa, OK

1:40 PM CST on January 17, 2017 (GMT -0600)
Blackwell

Weather History for KBKN - January, 2012

Change the Weather History Date:

Sunday, January 1, 2012

  Actual Average (KPNC) Record (KPNC)
Temperature  
Mean Temperature 40 °F -  
Max Temperature 48 °F 43 °F 77 °F (2006)
Min Temperature 32 °F 22 °F 5 °F (1974)
Degree Days  
Heating Degree Days 25    
Moisture  
Dew Point 27 °F    
Average Humidity 60    
Maximum Humidity 81    
Minimum Humidity 34    
Precipitation  
Precipitation 0.00 in - - ()
Sea Level Pressure  
Sea Level Pressure 30.44 in    
Wind  
Wind Speed 13 mph (NW)    
Max Wind Speed 20 mph    
Max Gust Speed 25 mph    
Visibility 10 miles    
Events      
Averages and records for this station are not official NWS values.
T = Trace of Precipitation, MM = Missing Value Source: NWS Daily Summary

Daily Weather History Graph

Daily Weather History Graph

Search for Another Location

Airport or City:

Trip Planner

Search our weather history database for the weather conditions in past years. The results will help you decide how hot, cold, wet, or windy it might be!

Date:

Astronomy

Jan. 01, 2012 Rise Set
Actual Time 7:41 AM CST 5:23 PM CST
Civil Twilight 7:13 AM CST 5:52 PM CST
Nautical Twilight 6:40 AM CST 6:24 PM CST
Astronomical Twilight 6:09 AM CST 6:56 PM CST
Moon 12:07 PM CST (1/1) 12:44 AM CST (1/1)
Length of Visible Light 10h 39m
Length of Day
9h 41m
First Quarter, 55% of the Moon is Illuminated
Jan 1
First Quarter
Jan 9
Full
Jan 16
Last Quarter
Jan 23
New
Jan 30
First Quarter

Hourly Weather History & Observations

Time (CST) Temp. Windchill Dew Point Humidity Pressure Visibility Wind Dir Wind Speed Gust Speed Precip Events Conditions
12:15 AM 41.0 °F 33.1 °F 30.2 °F 65% 30.17 in 10.0 mi NW 15.0 mph 20.7 mph N/A   Clear
12:35 AM 41.0 °F 31.9 °F 30.2 °F 65% 30.18 in 10.0 mi NW 19.6 mph - N/A   Clear
12:55 AM 41.0 °F 33.1 °F 30.2 °F 65% 30.19 in 10.0 mi NW 15.0 mph 25.3 mph N/A   Clear
1:15 AM 41.0 °F 32.8 °F 30.2 °F 65% 30.20 in 10.0 mi NW 16.1 mph 24.2 mph N/A   Clear
1:35 AM 41.0 °F 33.5 °F 30.2 °F 65% 30.23 in 10.0 mi NW 13.8 mph - N/A   Clear
1:55 AM 41.0 °F 33.1 °F 28.4 °F 61% 30.23 in 10.0 mi NW 15.0 mph - N/A   Clear
2:15 AM 39.2 °F 30.8 °F 28.4 °F 65% 30.25 in 10.0 mi NW 15.0 mph 19.6 mph N/A   Clear
2:35 AM 39.2 °F 30.8 °F 28.4 °F 65% 30.26 in 10.0 mi NW 15.0 mph 20.7 mph N/A   Clear
2:55 AM 39.2 °F 31.2 °F 28.4 °F 65% 30.28 in 10.0 mi NW 13.8 mph - N/A   Clear
3:15 AM 37.4 °F 29.3 °F 28.4 °F 70% 30.30 in 10.0 mi NW 12.7 mph - N/A   Clear
3:35 AM 37.4 °F 28.9 °F 28.4 °F 70% 30.32 in 10.0 mi NW 13.8 mph - N/A   Clear
3:55 AM 37.4 °F 29.3 °F 28.4 °F 70% 30.33 in 10.0 mi NW 12.7 mph - N/A   Clear
4:15 AM 35.6 °F 27.5 °F 28.4 °F 75% 30.35 in 10.0 mi NW 11.5 mph - N/A   Clear
4:35 AM 35.6 °F 28.0 °F 28.4 °F 75% 30.36 in 10.0 mi WNW 10.4 mph - N/A   Clear
4:55 AM 35.6 °F 27.5 °F 28.4 °F 75% 30.37 in 10.0 mi NW 11.5 mph - N/A   Clear
5:15 AM 35.6 °F 27.5 °F 28.4 °F 75% 30.38 in 10.0 mi NW 11.5 mph - N/A   Clear
5:35 AM 35.6 °F 26.6 °F 26.6 °F 70% 30.38 in 10.0 mi NW 13.8 mph - N/A   Clear
5:55 AM 35.6 °F 27.5 °F 26.6 °F 70% 30.39 in 10.0 mi NW 11.5 mph - N/A   Clear
6:15 AM 33.8 °F 27.0 °F 26.6 °F 75% 30.39 in 10.0 mi NW 8.1 mph - N/A   Clear
6:35 AM 32.0 °F 24.8 °F 26.6 °F 80% 30.40 in 10.0 mi NNW 8.1 mph - N/A   Clear
6:55 AM 32.0 °F 24.2 °F 26.6 °F 80% 30.41 in 10.0 mi NNW 9.2 mph - N/A   Clear
7:15 AM 32.0 °F 25.6 °F 26.6 °F 80% 30.42 in 10.0 mi NW 6.9 mph - N/A   Clear
7:35 AM 32.0 °F 25.6 °F 26.6 °F 80% 30.44 in 10.0 mi WNW 6.9 mph - N/A   Clear
7:55 AM 32.0 °F 23.6 °F 26.6 °F 80% 30.46 in 10.0 mi NW 10.4 mph - N/A   Clear
8:15 AM 32.0 °F 24.8 °F 26.6 °F 80% 30.47 in 10.0 mi WNW 8.1 mph - N/A   Clear
8:35 AM 32.0 °F 25.6 °F 26.6 °F 80% 30.49 in 10.0 mi West 6.9 mph - N/A   Clear
8:55 AM 33.8 °F 27.0 °F 28.4 °F 81% 30.51 in 10.0 mi WNW 8.1 mph - N/A   Clear
9:15 AM 37.4 °F 29.8 °F 28.4 °F 70% 30.51 in 10.0 mi NW 11.5 mph - N/A   Clear
9:35 AM 39.2 °F 31.6 °F 28.4 °F 65% 30.52 in 10.0 mi NW 12.7 mph - N/A   Clear
9:55 AM 41.0 °F 33.1 °F 28.4 °F 61% 30.54 in 10.0 mi NNW 15.0 mph - N/A   Clear
10:15 AM 41.0 °F 32.5 °F 26.6 °F 57% 30.54 in 10.0 mi North 17.3 mph - N/A   Clear
10:35 AM 42.8 °F 34.5 °F 26.6 °F 53% 30.56 in 10.0 mi NNW 18.4 mph - N/A   Clear
11:15 AM 44.6 °F 38.1 °F 26.6 °F 49% 30.56 in 10.0 mi NNW 13.8 mph - N/A   Clear
11:35 AM 44.6 °F 38.4 °F 26.6 °F 49% 30.56 in 10.0 mi NW 12.7 mph 18.4 mph N/A   Clear
11:55 AM 46.4 °F 40.1 °F 24.8 °F 43% 30.56 in 10.0 mi NNW 15.0 mph - N/A   Clear
12:15 PM 46.4 °F 40.1 °F 26.6 °F 46% 30.56 in 10.0 mi NW 15.0 mph - N/A   Clear
12:35 PM 46.4 °F 40.1 °F 26.6 °F 46% 30.55 in 10.0 mi NW 15.0 mph 19.6 mph N/A   Clear
12:55 PM 46.4 °F 40.7 °F 26.6 °F 46% 30.55 in 10.0 mi NNW 12.7 mph 20.7 mph N/A   Clear
1:15 PM 48.2 °F - 24.8 °F 40% 30.55 in 10.0 mi NW 16.1 mph 21.9 mph N/A   Clear
1:35 PM 48.2 °F - 24.8 °F 40% 30.54 in 10.0 mi NNW 16.1 mph - N/A   Clear
1:55 PM 48.2 °F - 24.8 °F 40% 30.53 in 10.0 mi NW 13.8 mph - N/A   Clear
2:15 PM 48.2 °F - 23.0 °F 37% 30.53 in 10.0 mi NNW 15.0 mph - N/A   Clear
2:35 PM 48.2 °F - 21.2 °F 34% 30.53 in 10.0 mi NW 15.0 mph 21.9 mph N/A   Clear
2:55 PM 48.2 °F - 21.2 °F 34% 30.53 in 10.0 mi NW 16.1 mph - N/A   Clear
3:15 PM 48.2 °F - 23.0 °F 37% 30.54 in 10.0 mi NNW 13.8 mph - N/A   Clear
3:35 PM 48.2 °F - 23.0 °F 37% 30.54 in 10.0 mi WNW 11.5 mph - N/A   Clear
3:55 PM 48.2 °F - 23.0 °F 37% 30.55 in 10.0 mi NW 9.2 mph - N/A   Clear
4:15 PM 48.2 °F - 23.0 °F 37% 30.55 in 10.0 mi NW 9.2 mph - N/A   Clear
4:35 PM 48.2 °F - 24.8 °F 40% 30.56 in 10.0 mi WNW 8.1 mph - N/A   Clear
4:55 PM 46.4 °F 42.4 °F 24.8 °F 43% 30.56 in 10.0 mi WNW 8.1 mph - N/A   Clear
5:15 PM 41.0 °F 35.8 °F 24.8 °F 53% 30.56 in 10.0 mi WNW 8.1 mph - N/A   Clear
5:35 PM 39.2 °F 33.6 °F 24.8 °F 56% 30.56 in 10.0 mi WNW 8.1 mph - N/A   Clear
5:55 PM 37.4 °F 32.1 °F 24.8 °F 60% 30.55 in 10.0 mi WNW 6.9 mph - N/A   Clear
6:15 PM 35.6 °F 29.2 °F 24.8 °F 65% 30.56 in 10.0 mi WNW 8.1 mph - N/A   Clear
6:35 PM 37.4 °F 30.8 °F 24.8 °F 60% 30.57 in 10.0 mi NW 9.2 mph - N/A   Clear
6:55 PM 37.4 °F 30.8 °F 24.8 °F 60% 30.57 in 10.0 mi WNW 9.2 mph - N/A   Clear
7:15 PM 35.6 °F 29.2 °F 24.8 °F 65% 30.58 in 10.0 mi WNW 8.1 mph - N/A   Clear
7:35 PM 35.6 °F 28.6 °F 24.8 °F 65% 30.58 in 10.0 mi WNW 9.2 mph - N/A   Clear
7:55 PM 35.6 °F 28.6 °F 26.6 °F 70% 30.59 in 10.0 mi WNW 9.2 mph - N/A   Clear
8:15 PM 35.6 °F 29.2 °F 26.6 °F 70% 30.58 in 10.0 mi WNW 8.1 mph - N/A   Clear
8:55 PM 35.6 °F 29.2 °F 26.6 °F 70% 30.59 in 10.0 mi WNW 8.1 mph - N/A   Clear
9:15 PM 37.4 °F 30.3 °F 26.6 °F 65% 30.60 in 10.0 mi NW 10.4 mph - N/A   Partly Cloudy
9:35 PM 37.4 °F 29.3 °F 26.6 °F 65% 30.60 in 10.0 mi NW 12.7 mph - N/A   Partly Cloudy
9:55 PM 39.2 °F 32.0 °F 28.4 °F 65% 30.61 in 10.0 mi NW 11.5 mph - N/A   Partly Cloudy
10:15 PM 37.4 °F 30.3 °F 28.4 °F 70% 30.62 in 10.0 mi NW 10.4 mph - N/A   Clear
10:35 PM 39.2 °F 33.0 °F 28.4 °F 65% 30.62 in 10.0 mi NW 9.2 mph - N/A   Clear
10:55 PM 37.4 °F 30.8 °F 28.4 °F 70% 30.62 in 10.0 mi NW 9.2 mph - N/A   Clear